Weather History for KDRA - August, 2013

Change the Weather History Date:

Tuesday, August 6, 2013

  Actual Average Record
Temperature  
Mean Temperature 84 °F -  
Max Temperature 99 °F 99 °F 107 °F (1997)
Min Temperature 70 °F 69 °F 61 °F (2006)
Cooling Degree Days 20    
Growing Degree Days 34 (Base 50)    
Moisture  
Dew Point 12 °F    
Average Humidity 6    
Maximum Humidity 11    
Minimum Humidity 4    
Precipitation  
Precipitation 0.00 in - - ()
Sea Level Pressure  
Sea Level Pressure 29.80 in    
Wind  
Wind Speed 9 mph (SW)    
Max Wind Speed 18 mph    
Max Gust Speed 31 mph    
Visibility 10 miles    
Events      
Averages and records for this station are not official NWS values.
T = Trace of Precipitation, MM = Missing Value Source: NWS Daily Summary

Daily Weather History Graph

Daily Weather History Graph

Search for Another Location

Airport or City:

Trip Planner

Search our weather history database for the weather conditions in past years. The results will help you decide how hot, cold, wet, or windy it might be!

Date:

Astronomy

Aug. 06, 2013 Rise Set
Actual Time 5:54 AM PDT 7:44 PM PDT
Civil Twilight 5:26 AM PDT 8:12 PM PDT
Nautical Twilight 4:52 AM PDT 8:46 PM PDT
Astronomical Twilight 4:15 AM PDT 9:23 PM PDT
Moon 5:48 AM PDT (8/6) 7:24 PM PDT (8/6)
Length of Visible Light 14h 46m
Length of Day
13h 50m
Waning Crescent, 0% of the Moon is Illuminated
Aug 6
Waning Crescent
Aug 6
New
Aug 14
First Quarter
Aug 20
Full
Aug 28
Last Quarter

Hourly Weather History & Observations

Time (PDT) Temp. Dew Point Humidity Pressure Visibility Wind Dir Wind Speed Gust Speed Precip Events Conditions
12:52 AM 78.1 °F 9.0 °F 7% 29.78 in 10.0 mi NNE 5.8 mph - N/A   Clear
1:52 AM 78.1 °F 9.0 °F 7% 29.77 in 10.0 mi North 3.5 mph - N/A   Clear
2:52 AM 75.9 °F 9.0 °F 8% 29.77 in 10.0 mi NNE 8.1 mph - N/A   Clear
3:52 AM 73.0 °F 10.9 °F 9% 29.78 in 10.0 mi North 6.9 mph - N/A   Clear
4:52 AM 73.0 °F 12.0 °F 10% 29.79 in 10.0 mi NE 4.6 mph - N/A   Clear
5:52 AM 72.0 °F 12.0 °F 10% 29.81 in 10.0 mi NE 6.9 mph - N/A   Clear
6:52 AM 71.1 °F 14.0 °F 11% 29.83 in 10.0 mi Calm Calm - N/A   Clear
7:52 AM 75.9 °F 12.9 °F 9% 29.85 in 10.0 mi Calm Calm - N/A   Clear
8:52 AM 84.0 °F 18.0 °F 9% 29.85 in 10.0 mi WSW 4.6 mph - N/A   Clear
9:52 AM 87.1 °F 19.9 °F 8% 29.86 in 10.0 mi SSW 9.2 mph - N/A   Clear
10:52 AM 91.0 °F 21.0 °F 8% 29.85 in 10.0 mi SSW 10.4 mph - N/A   Clear
11:52 AM 95.0 °F 19.0 °F 6% 29.83 in 10.0 mi WSW 18.4 mph 26.5 mph N/A   Clear
12:52 PM 97.0 °F 12.0 °F 4% 29.83 in 10.0 mi SW 17.3 mph 25.3 mph N/A   Clear
1:52 PM 98.1 °F 10.0 °F 4% 29.81 in 10.0 mi SSW 16.1 mph 27.6 mph N/A   Clear
2:52 PM 98.1 °F 9.0 °F 4% 29.80 in 10.0 mi SSW 17.3 mph 31.1 mph N/A   Clear
3:52 PM 98.1 °F 6.1 °F 4% 29.79 in 10.0 mi SW 16.1 mph 27.6 mph N/A   Clear
4:52 PM 98.1 °F 5.0 °F 4% 29.77 in 10.0 mi SW 18.4 mph 25.3 mph N/A   Clear
5:52 PM 97.0 °F 8.1 °F 4% 29.76 in 10.0 mi SSW 16.1 mph 24.2 mph N/A   Clear
6:52 PM 93.9 °F 9.0 °F 4% 29.76 in 10.0 mi SSW 15.0 mph 25.3 mph N/A   Clear
7:52 PM 91.0 °F 9.0 °F 5% 29.76 in 10.0 mi SSW 13.8 mph 23.0 mph N/A   Clear
8:52 PM 89.1 °F 7.0 °F 5% 29.76 in 10.0 mi South 11.5 mph - N/A   Clear
9:52 PM 89.1 °F 5.0 °F 4% 29.77 in 10.0 mi SSW 18.4 mph 24.2 mph N/A   Clear
10:52 PM 84.9 °F 12.0 °F 7% 29.79 in 10.0 mi WSW 15.0 mph - N/A   Clear
11:52 PM 84.0 °F 19.0 °F 9% 29.79 in 10.0 mi SW 10.4 mph - N/A   Clear